Flag for Germany Weather past 2 weeks in Karlsruhe, Baden-Württemberg, Germany

Now
59 °F

Passing clouds.


Feels Like: 59 °F
Forecast: 49 / 65 °F
Wind: 5 mph from Southwest

Location: Karlsruhe - Baden Wurttemberg

Current Time: May 6, 2015 at 3:27:25 AM

Latest Report: May 5, 2015 at 11:50 PM


Visibility: N/A

Pressure: 29.89 "Hg

Humidity: 77%

Dew point: 52 °F

Location of KarlsruheLocation

Historic Weather in Karlsruhe — Graph

°F

Karlsruhe temperature yesterday

Maximum temperature yesterday: 70 °F (at 10:50 AM)
Minimum temperature yesterday: 59 °F (at 4:50 AM)
Average temperature yesterday: 65 °F

Past Weeks' High & Low Weather Summary

 TemperatureHumidityPressure
High75 °F (May 4, 3:50 PM)100% (May 3, 4:50 AM)30.39 "Hg (May 3, 4:50 AM)
Low36 °F (Apr 23, 6:20 AM)22% (Apr 24, 5:50 PM)29.53 "Hg (May 5, 7:20 AM)
Average57 °F66%29.92 "Hg
* Reported Apr 20 11:20 PM — May 5 11:50 PM, Karlsruhe, Weather by CustomWeather, © 2015

Note: Actual official high and low records may vary slightly from our data, if they occured in-between our weather recording intervals... More about our weather records

Advertising

Karlsruhe weather history for previous 24 hours

 ConditionsComfort  
Time TempWeatherWind HumidityBarometerVisibility
11:50 PM
Tue, May 5
59 °FPassing clouds.5 mph77%29.89 "HgN/A
11:20 PM59 °FClear.8 mph82%29.89 "Hg10 mi
10:50 PM59 °FClear.7 mph77%29.89 "Hg10 mi
10:20 PM61 °FClear.8 mph77%29.89 "Hg10 mi
9:50 PM61 °FClear.12 mph77%29.89 "Hg10 mi
9:20 PM61 °FSunny.10 mph72%29.86 "Hg10 mi
8:50 PM63 °FScattered clouds.12 mph68%29.83 "HgN/A
8:20 PM64 °FBroken clouds.14 mph64%29.83 "HgN/A
7:50 PM64 °FBroken clouds.14 mph64%29.83 "HgN/A
7:20 PM66 °FSunny.15 mph60%29.80 "Hg10 mi
6:50 PM68 °FSunny.17 mph56%29.80 "Hg10 mi
6:20 PM68 °FBroken clouds.16 mph53%29.80 "HgN/A
5:50 PM70 °FBroken clouds.7 mph60%29.77 "HgN/A
5:20 PM70 °FPartly sunny.5 mph60%29.77 "HgN/A
4:50 PM70 °FPartly sunny.10 mph57%29.74 "HgN/A
4:20 PM70 °FSunny.16 mph57%29.74 "Hg10 mi
3:50 PM70 °FSunny.16 mph60%29.74 "Hg10 mi
3:20 PM70 °FSunny.21 mph57%29.74 "Hg10 mi
2:50 PM70 °FSunny.16 mph57%29.74 "Hg10 mi
2:20 PM70 °FScattered showers. Partly sunny.20 mph57%29.71 "HgN/A
1:50 PM68 °FScattered showers. Partly sunny.18 mph60%29.71 "HgN/A
1:20 PM68 °FScattered showers. Broken clouds.18 mph60%29.71 "HgN/A
12:50 PM70 °FSprinkles. Broken clouds.16 mph57%29.71 "HgN/A
12:20 PM70 °FSprinkles. Broken clouds.13 mph60%29.71 "HgN/A
11:50 AM70 °FSprinkles. Partly sunny.15 mph60%29.71 "HgN/A
11:20 AM70 °FScattered showers. Broken clouds.9 mph64%29.68 "HgN/A
10:50 AM70 °FBroken clouds.12 mph64%29.65 "HgN/A
10:20 AM68 °FSprinkles. Broken clouds.7 mph69%29.65 "HgN/A
9:50 AM66 °FSunny.5 mph73%29.62 "Hg10 mi
9:20 AM66 °FSunny.2 mph73%29.62 "Hg10 mi
8:50 AM63 °FPassing clouds.5 mph83%29.62 "HgN/A
8:20 AM63 °FPassing clouds.5 mph83%29.62 "HgN/A
7:50 AM61 °FSunny.5 mph88%29.56 "Hg10 mi
7:20 AM61 °FSunny.3 mph88%29.53 "Hg10 mi
6:50 AM61 °FClear.2 mph88%29.56 "Hg10 mi
6:20 AM61 °FClear.2 mph88%29.56 "Hg10 mi
5:20 AM59 °FClear.3 mph88%29.59 "Hg10 mi
4:50 AM59 °FClear.2 mph94%29.59 "Hg10 mi
Weather by CustomWeather, © 2015

See weather overviewHow to use our weather pages